Time,TemperatureF,DewpointF,PressureIn,WindDirection,WindDirectionDegrees,WindSpeedMPH,WindSpeedGustMPH,Humidity,HourlyPrecipIn,Conditions,Clouds,dailyrainin,SoftwareType,DateUTC
2013-04-19 00:00:00,50.0,46.0,30.09,SE,135,5.0,6.0,87,0.00,,,0.00,Rainwise IP-100,2013-04-19 04:00:00,
2013-04-19 00:01:00,50.0,46.0,30.09,SE,135,5.0,6.0,87,0.00,,,0.00,Rainwise IP-100,2013-04-19 04:01:00,
2013-04-19 00:06:00,50.0,46.0,30.09,SSW,202,6.0,6.0,87,0.00,,,0.00,Rainwise IP-100,2013-04-19 04:06:00,
2013-04-19 00:11:00,50.0,46.0,30.09,SE,135,5.0,6.0,87,0.00,,,0.00,Rainwise IP-100,2013-04-19 04:11:00,
2013-04-19 00:27:00,50.0,48.0,30.08,South,180,6.0,6.0,94,0.00,,,0.00,Rainwise IP-100,2013-04-19 04:27:00,
2013-04-19 00:32:00,50.0,48.0,30.08,ESE,112,4.0,9.0,94,0.00,,,0.00,Rainwise IP-100,2013-04-19 04:32:00,
2013-04-19 00:38:00,50.0,48.0,30.08,SE,135,2.0,6.0,94,0.00,,,0.00,Rainwise IP-100,2013-04-19 04:38:00,
2013-04-19 00:43:00,50.0,48.0,30.08,SE,135,1.0,6.0,94,0.00,,,0.00,Rainwise IP-100,2013-04-19 04:43:00,
2013-04-19 00:48:00,50.0,48.0,30.08,ESE,112,5.0,6.0,94,0.00,,,0.00,Rainwise IP-100,2013-04-19 04:48:00,
2013-04-19 00:53:00,50.0,48.0,30.08,ESE,112,3.0,6.0,94,0.00,,,0.00,Rainwise IP-100,2013-04-19 04:53:00,
2013-04-19 00:58:00,50.0,49.0,30.07,ESE,112,1.0,6.0,97,0.00,,,0.00,Rainwise IP-100,2013-04-19 04:58:00,
2013-04-19 01:03:00,50.0,49.0,30.07,ESE,112,0.0,6.0,97,0.00,,,0.00,Rainwise IP-100,2013-04-19 05:03:00,
2013-04-19 01:08:00,50.0,49.0,30.07,ESE,112,0.0,6.0,97,0.00,,,0.00,Rainwise IP-100,2013-04-19 05:08:00,
2013-04-19 01:13:00,50.0,49.0,30.07,SE,135,6.0,6.0,97,0.00,,,0.00,Rainwise IP-100,2013-04-19 05:13:00,
2013-04-19 01:18:00,50.0,49.0,30.07,SSW,202,6.0,7.0,97,0.00,,,0.00,Rainwise IP-100,2013-04-19 05:18:00,
2013-04-19 01:24:00,50.0,49.0,30.07,SSW,202,2.0,6.0,97,0.00,,,0.00,Rainwise IP-100,2013-04-19 05:24:00,
2013-04-19 01:29:00,50.0,49.0,30.06,South,180,3.0,6.0,97,0.00,,,0.00,Rainwise IP-100,2013-04-19 05:29:00,
2013-04-19 01:34:00,50.0,49.0,30.06,South,180,3.0,4.0,97,0.00,,,0.00,Rainwise IP-100,2013-04-19 05:34:00,
2013-04-19 01:39:00,50.0,49.0,30.06,South,180,3.0,4.0,97,0.00,,,0.00,Rainwise IP-100,2013-04-19 05:39:00,
2013-04-19 01:44:00,50.0,49.0,30.06,South,180,3.0,4.0,97,0.00,,,0.00,Rainwise IP-100,2013-04-19 05:44:00,
2013-04-19 01:49:00,50.0,49.0,30.06,South,180,3.0,4.0,97,0.00,,,0.00,Rainwise IP-100,2013-04-19 05:49:00,
2013-04-19 01:54:00,50.0,49.0,30.06,South,180,4.0,4.0,97,0.00,,,0.00,Rainwise IP-100,2013-04-19 05:54:00,
2013-04-19 02:00:00,50.0,49.0,30.06,South,180,3.0,4.0,97,0.00,,,0.00,Rainwise IP-100,2013-04-19 06:00:00,
2013-04-19 02:05:00,50.0,49.0,30.06,South,180,3.0,4.0,97,0.00,,,0.00,Rainwise IP-100,2013-04-19 06:05:00,
2013-04-19 02:10:00,50.0,49.0,30.06,South,180,3.0,4.0,97,0.00,,,0.00,Rainwise IP-100,2013-04-19 06:10:00,
2013-04-19 02:26:00,50.0,49.0,30.02,SE,135,3.0,4.0,97,0.00,,,0.00,Rainwise IP-100,2013-04-19 06:26:00,
2013-04-19 02:32:00,50.0,49.0,30.02,South,180,3.0,5.0,97,0.00,,,0.00,Rainwise IP-100,2013-04-19 06:32:00,
2013-04-19 02:37:00,50.0,49.0,30.02,South,180,4.0,6.0,97,0.00,,,0.00,Rainwise IP-100,2013-04-19 06:37:00,
2013-04-19 02:42:00,50.0,49.0,30.02,SW,225,5.0,6.0,97,0.00,,,0.00,Rainwise IP-100,2013-04-19 06:42:00,
2013-04-19 02:47:00,50.0,49.0,30.02,South,180,2.0,6.0,97,0.00,,,0.00,Rainwise IP-100,2013-04-19 06:47:00,
2013-04-19 02:52:00,51.0,50.5,30.00,SSE,157,7.0,8.0,97,0.00,,,0.00,Rainwise IP-100,2013-04-19 06:52:00,
2013-04-19 02:57:00,51.0,50.5,30.00,SSE,157,6.0,8.0,97,0.00,,,0.00,Rainwise IP-100,2013-04-19 06:57:00,
2013-04-19 03:02:00,51.0,50.5,30.00,SSE,157,6.0,8.0,97,0.00,,,0.00,Rainwise IP-100,2013-04-19 07:02:00,
2013-04-19 03:07:00,51.0,50.5,30.00,SSE,157,6.0,8.0,97,0.00,,,0.00,Rainwise IP-100,2013-04-19 07:07:00,
2013-04-19 03:13:00,51.0,50.5,30.00,SSE,157,6.0,8.0,97,0.00,,,0.00,Rainwise IP-100,2013-04-19 07:13:00,
2013-04-19 03:18:00,51.0,50.5,30.00,SSE,157,6.0,8.0,97,0.00,,,0.00,Rainwise IP-100,2013-04-19 07:18:00,
2013-04-19 03:23:00,51.0,50.5,30.00,SSE,157,6.0,8.0,97,0.00,,,0.00,Rainwise IP-100,2013-04-19 07:23:00,
2013-04-19 03:28:00,51.0,50.5,30.00,SSE,157,6.0,8.0,97,0.00,,,0.00,Rainwise IP-100,2013-04-19 07:28:00,
2013-04-19 03:33:00,51.0,50.5,30.00,SSE,157,6.0,8.0,97,0.00,,,0.00,Rainwise IP-100,2013-04-19 07:33:00,
2013-04-19 03:38:00,51.0,50.5,30.00,SSE,157,6.0,8.0,97,0.00,,,0.00,Rainwise IP-100,2013-04-19 07:38:00,
2013-04-19 08:09:00,57.0,56.5,29.91,SSW,202,4.0,8.0,98,0.00,,,0.00,Rainwise IP-100,2013-04-19 12:09:00,
2013-04-19 08:14:00,57.0,56.5,29.91,South,180,5.0,8.0,98,0.00,,,0.00,Rainwise IP-100,2013-04-19 12:14:00,
2013-04-19 08:20:00,57.0,56.5,29.91,WSW,247,6.0,10.0,98,0.00,,,0.00,Rainwise IP-100,2013-04-19 12:20:00,
2013-04-19 08:25:00,57.0,56.5,29.91,WSW,247,2.0,7.0,98,0.00,,,0.00,Rainwise IP-100,2013-04-19 12:25:00,
2013-04-19 08:30:00,57.0,56.5,29.91,SW,225,6.0,7.0,98,0.00,,,0.00,Rainwise IP-100,2013-04-19 12:30:00,
2013-04-19 08:35:00,57.0,56.5,29.91,SW,225,6.0,7.0,98,0.00,,,0.00,Rainwise IP-100,2013-04-19 12:35:00,
2013-04-19 08:40:00,57.0,56.5,29.91,South,180,3.0,7.0,98,0.00,,,0.00,Rainwise IP-100,2013-04-19 12:40:00,
2013-04-19 08:45:00,58.0,57.5,29.91,SSW,202,8.0,12.0,98,0.00,,,0.00,Rainwise IP-100,2013-04-19 12:45:00,
2013-04-19 08:50:00,59.0,58.0,29.91,South,180,3.0,12.0,98,0.00,,,0.00,Rainwise IP-100,2013-04-19 12:50:00,
2013-04-19 08:55:00,59.0,58.0,29.91,SSW,202,6.0,12.0,98,0.00,,,0.00,Rainwise IP-100,2013-04-19 12:55:00,
2013-04-19 09:01:00,60.0,59.5,29.91,South,180,5.0,9.0,98,0.00,,,0.00,Rainwise IP-100,2013-04-19 13:01:00,
2013-04-19 09:06:00,60.0,59.5,29.90,South,180,9.0,11.0,98,0.00,,,0.00,Rainwise IP-100,2013-04-19 13:06:00,
2013-04-19 09:11:00,60.0,59.5,29.90,SSW,202,4.0,10.0,98,0.00,,,0.00,Rainwise IP-100,2013-04-19 13:11:00,
2013-04-19 09:16:00,61.0,60.5,29.89,WNW,292,2.0,11.0,98,0.00,,,0.00,Rainwise IP-100,2013-04-19 13:16:00,
2013-04-19 09:21:00,61.0,60.0,29.89,SSW,202,5.0,12.0,97,0.00,,,0.00,Rainwise IP-100,2013-04-19 13:21:00,
2013-04-19 09:26:00,61.0,60.0,29.89,SSW,202,8.0,11.0,96,0.00,,,0.00,Rainwise IP-100,2013-04-19 13:26:00,
2013-04-19 09:31:00,61.0,59.5,29.88,SW,225,2.0,9.0,95,0.00,,,0.00,Rainwise IP-100,2013-04-19 13:31:00,
2013-04-19 09:37:00,61.0,59.5,29.87,WSW,247,10.0,12.0,94,0.00,,,0.00,Rainwise IP-100,2013-04-19 13:37:00,
2013-04-19 09:42:00,61.0,59.5,29.87,SW,225,9.0,10.0,94,0.00,,,0.00,Rainwise IP-100,2013-04-19 13:42:00,
2013-04-19 09:47:00,62.0,60.5,29.87,WSW,247,1.0,12.0,94,0.00,,,0.00,Rainwise IP-100,2013-04-19 13:47:00,
2013-04-19 09:52:00,62.0,60.5,29.87,SSW,202,6.0,12.0,94,0.00,,,0.00,Rainwise IP-100,2013-04-19 13:52:00,
2013-04-19 09:57:00,62.0,60.0,29.87,South,180,4.0,12.0,93,0.00,,,0.00,Rainwise IP-100,2013-04-19 13:57:00,
2013-04-19 10:02:00,61.0,59.0,29.87,SSW,202,4.0,10.0,93,0.00,,,0.00,Rainwise IP-100,2013-04-19 14:02:00,
2013-04-19 10:07:00,61.0,59.0,29.87,South,180,6.0,7.0,93,0.00,,,0.00,Rainwise IP-100,2013-04-19 14:07:00,
2013-04-19 10:12:00,61.0,59.5,29.87,SSW,202,3.0,12.0,94,0.00,,,0.00,Rainwise IP-100,2013-04-19 14:12:00,
2013-04-19 10:18:00,61.0,59.5,29.87,SE,135,3.0,9.0,95,0.00,,,0.00,Rainwise IP-100,2013-04-19 14:18:00,
2013-04-19 10:23:00,61.0,59.5,29.87,South,180,7.0,9.0,94,0.00,,,0.00,Rainwise IP-100,2013-04-19 14:23:00,
2013-04-19 10:28:00,61.0,59.5,29.88,SSW,202,5.0,10.0,94,0.00,,,0.00,Rainwise IP-100,2013-04-19 14:28:00,
2013-04-19 10:33:00,61.0,59.0,29.88,South,180,3.0,10.0,93,0.00,,,0.00,Rainwise IP-100,2013-04-19 14:33:00,
2013-04-19 10:38:00,62.0,60.0,29.87,SSW,202,7.0,9.0,93,0.00,,,0.00,Rainwise IP-100,2013-04-19 14:38:00,
2013-04-19 10:43:00,62.0,60.0,29.87,South,180,1.0,8.0,92,0.00,,,0.00,Rainwise IP-100,2013-04-19 14:43:00,
2013-04-19 10:48:00,62.0,60.0,29.86,SSW,202,4.0,9.0,92,0.00,,,0.00,Rainwise IP-100,2013-04-19 14:48:00,
2013-04-19 10:53:00,62.0,60.0,29.86,SSW,202,6.0,9.0,92,0.00,,,0.00,Rainwise IP-100,2013-04-19 14:53:00,
2013-04-19 10:59:00,62.0,60.0,29.86,South,180,9.0,9.0,92,0.00,,,0.00,Rainwise IP-100,2013-04-19 14:59:00,
2013-04-19 11:04:00,62.0,59.5,29.86,West,270,2.0,11.0,91,0.00,,,0.00,Rainwise IP-100,2013-04-19 15:04:00,
2013-04-19 11:09:00,63.0,60.5,29.85,South,180,4.0,10.0,91,0.00,,,0.00,Rainwise IP-100,2013-04-19 15:09:00,
2013-04-19 11:14:00,63.0,60.0,29.85,SSW,202,6.0,10.0,90,0.00,,,0.00,Rainwise IP-100,2013-04-19 15:14:00,
2013-04-19 11:19:00,63.0,60.0,29.85,SW,225,3.0,12.0,89,0.00,,,0.00,Rainwise IP-100,2013-04-19 15:19:00,
2013-04-19 11:24:00,64.0,60.5,29.85,South,180,4.0,15.0,89,0.00,,,0.00,Rainwise IP-100,2013-04-19 15:24:00,
2013-04-19 11:29:00,64.0,60.0,29.83,SSW,202,7.0,10.0,87,0.00,,,0.00,Rainwise IP-100,2013-04-19 15:29:00,
2013-04-19 11:35:00,65.0,60.5,29.83,SE,135,6.0,15.0,86,0.00,,,0.00,Rainwise IP-100,2013-04-19 15:35:00,
2013-04-19 11:40:00,65.0,60.5,29.82,SSW,202,2.0,13.0,86,0.00,,,0.00,Rainwise IP-100,2013-04-19 15:40:00,
2013-04-19 11:45:00,65.0,60.5,29.82,SSW,202,3.0,11.0,85,0.00,,,0.00,Rainwise IP-100,2013-04-19 15:45:00,
2013-04-19 11:50:00,65.0,60.0,29.82,SW,225,7.0,15.0,84,0.00,,,0.00,Rainwise IP-100,2013-04-19 15:50:00,
2013-04-19 11:55:00,65.0,60.0,29.82,South,180,1.0,12.0,84,0.00,,,0.00,Rainwise IP-100,2013-04-19 15:55:00,
2013-04-19 12:00:00,66.0,60.5,29.81,South,180,5.0,12.0,83,0.00,,,0.00,Rainwise IP-100,2013-04-19 16:00:00,
2013-04-19 12:05:00,66.0,60.0,29.80,West,270,0.0,16.0,82,0.00,,,0.00,Rainwise IP-100,2013-04-19 16:05:00,
2013-04-19 12:10:00,66.0,60.0,29.80,SSW,202,2.0,14.0,82,0.00,,,0.00,Rainwise IP-100,2013-04-19 16:10:00,
2013-04-19 12:16:00,66.0,60.5,29.80,SW,225,2.0,13.0,83,0.00,,,0.00,Rainwise IP-100,2013-04-19 16:16:00,
2013-04-19 12:21:00,66.0,60.0,29.80,South,180,5.0,11.0,82,0.00,,,0.00,Rainwise IP-100,2013-04-19 16:21:00,
2013-04-19 12:26:00,66.0,60.0,29.80,South,180,7.0,12.0,81,0.00,,,0.00,Rainwise IP-100,2013-04-19 16:26:00,
2013-04-19 12:31:00,67.0,61.0,29.80,SE,135,3.0,15.0,80,0.00,,,0.00,Rainwise IP-100,2013-04-19 16:31:00,
2013-04-19 12:36:00,67.0,60.5,29.79,SSW,202,2.0,15.0,79,0.00,,,0.00,Rainwise IP-100,2013-04-19 16:36:00,
2013-04-19 12:41:00,67.0,60.0,29.79,SSE,157,7.0,13.0,78,0.00,,,0.00,Rainwise IP-100,2013-04-19 16:41:00,
2013-04-19 12:46:00,68.0,60.0,29.78,SE,135,2.0,10.0,75,0.00,,,0.00,Rainwise IP-100,2013-04-19 16:46:00,
2013-04-19 12:51:00,69.0,60.0,29.78,East,90,4.0,15.0,73,0.00,,,0.00,Rainwise IP-100,2013-04-19 16:51:00,
2013-04-19 12:57:00,69.0,59.5,29.76,SW,225,9.0,15.0,72,0.00,,,0.00,Rainwise IP-100,2013-04-19 16:57:00,
2013-04-19 13:02:00,69.0,60.0,29.76,West,270,1.0,15.0,73,0.00,,,0.00,Rainwise IP-100,2013-04-19 17:02:00,
2013-04-19 13:07:00,70.0,60.5,29.75,South,180,3.0,14.0,71,0.00,,,0.00,Rainwise IP-100,2013-04-19 17:07:00,
2013-04-19 13:12:00,70.0,60.0,29.75,SE,135,2.0,12.0,70,0.00,,,0.00,Rainwise IP-100,2013-04-19 17:12:00,
2013-04-19 13:17:00,69.0,59.0,29.74,SSW,202,6.0,15.0,71,0.00,,,0.00,Rainwise IP-100,2013-04-19 17:17:00,
2013-04-19 13:22:00,69.0,59.0,29.74,WSW,247,7.0,15.0,71,0.00,,,0.00,Rainwise IP-100,2013-04-19 17:22:00,
2013-04-19 13:27:00,69.0,59.0,29.75,West,270,6.0,22.0,71,0.00,,,0.00,Rainwise IP-100,2013-04-19 17:27:00,
2013-04-19 13:32:00,70.0,60.0,29.75,South,180,7.0,21.0,70,0.00,,,0.00,Rainwise IP-100,2013-04-19 17:32:00,
2013-04-19 13:38:00,70.0,59.5,29.73,South,180,5.0,15.0,69,0.00,,,0.00,Rainwise IP-100,2013-04-19 17:38:00,
2013-04-19 13:43:00,70.0,59.5,29.73,SSW,202,7.0,12.0,69,0.00,,,0.00,Rainwise IP-100,2013-04-19 17:43:00,
2013-04-19 13:48:00,70.0,59.5,29.72,SE,135,6.0,12.0,69,0.00,,,0.00,Rainwise IP-100,2013-04-19 17:48:00,
2013-04-19 13:53:00,70.0,60.5,29.72,South,180,6.0,15.0,71,0.00,,,0.00,Rainwise IP-100,2013-04-19 17:53:00,
2013-04-19 13:58:00,70.0,60.5,29.73,South,180,9.0,14.0,71,0.00,,,0.00,Rainwise IP-100,2013-04-19 17:58:00,
2013-04-19 14:03:00,70.0,59.5,29.73,SSE,157,2.0,20.0,69,0.00,,,0.00,Rainwise IP-100,2013-04-19 18:03:00,
2013-04-19 14:08:00,71.0,58.0,29.73,SSW,202,9.0,26.0,64,0.00,,,0.00,Rainwise IP-100,2013-04-19 18:08:00,
2013-04-19 14:14:00,71.0,58.0,29.73,SSW,202,7.0,19.0,65,0.00,,,0.00,Rainwise IP-100,2013-04-19 18:14:00,
2013-04-19 14:19:00,70.0,59.0,29.72,SW,225,7.0,16.0,67,0.00,,,0.00,Rainwise IP-100,2013-04-19 18:19:00,
2013-04-19 14:24:00,70.0,59.0,29.72,SSE,157,1.0,14.0,68,0.00,,,0.00,Rainwise IP-100,2013-04-19 18:24:00,
2013-04-19 14:29:00,70.0,59.0,29.72,SE,135,8.0,16.0,68,0.00,,,0.00,Rainwise IP-100,2013-04-19 18:29:00,
2013-04-19 14:34:00,70.0,60.0,29.72,SSE,157,8.0,17.0,70,0.00,,,0.00,Rainwise IP-100,2013-04-19 18:34:00,
2013-04-19 14:39:00,69.0,59.0,29.72,SSE,157,5.0,18.0,71,0.00,,,0.00,Rainwise IP-100,2013-04-19 18:39:00,
2013-04-19 14:44:00,69.0,60.0,29.72,West,270,2.0,17.0,73,0.00,,,0.00,Rainwise IP-100,2013-04-19 18:44:00,
2013-04-19 14:50:00,69.0,60.5,29.72,SSW,202,2.0,13.0,74,0.00,,,0.00,Rainwise IP-100,2013-04-19 18:50:00,
2013-04-19 14:55:00,68.0,60.0,29.72,SSE,157,5.0,17.0,76,0.00,,,0.00,Rainwise IP-100,2013-04-19 18:55:00,
2013-04-19 15:00:00,68.0,60.5,29.72,West,270,9.0,19.0,77,0.00,,,0.00,Rainwise IP-100,2013-04-19 19:00:00,
2013-04-19 15:05:00,68.0,61.0,29.72,SSW,202,5.0,11.0,78,0.00,,,0.00,Rainwise IP-100,2013-04-19 19:05:00,
2013-04-19 15:10:00,68.0,61.5,29.72,South,180,7.0,14.0,79,0.00,,,0.00,Rainwise IP-100,2013-04-19 19:10:00,
2013-04-19 15:15:00,67.0,61.0,29.72,SSW,202,7.0,13.0,81,0.00,,,0.00,Rainwise IP-100,2013-04-19 19:15:00,
2013-04-19 15:20:00,67.0,62.0,29.72,SW,225,8.0,18.0,83,0.00,,,0.00,Rainwise IP-100,2013-04-19 19:20:00,
2013-04-19 15:25:00,66.0,61.0,29.72,SSW,202,3.0,12.0,85,0.00,,,0.00,Rainwise IP-100,2013-04-19 19:25:00,
2013-04-19 15:31:00,66.0,62.0,29.72,South,180,6.0,13.0,88,0.00,,,0.00,Rainwise IP-100,2013-04-19 19:31:00,
2013-04-19 15:36:00,65.0,62.5,29.72,SSW,202,8.0,15.0,92,0.00,,,0.00,Rainwise IP-100,2013-04-19 19:36:00,
2013-04-19 15:41:00,64.0,62.5,29.72,WNW,292,7.0,16.0,95,0.00,,,0.00,Rainwise IP-100,2013-04-19 19:41:00,
2013-04-19 15:46:00,64.0,63.0,29.72,South,180,7.0,10.0,97,0.00,,,0.00,Rainwise IP-100,2013-04-19 19:46:00,
2013-04-19 15:51:00,63.0,62.5,29.72,SSE,157,3.0,12.0,98,0.00,,,0.00,Rainwise IP-100,2013-04-19 19:51:00,
2013-04-19 15:56:00,63.0,62.5,29.72,South,180,2.0,10.0,98,0.00,,,0.00,Rainwise IP-100,2013-04-19 19:56:00,
2013-04-19 16:01:00,63.0,62.5,29.72,WSW,247,4.0,10.0,98,0.00,,,0.00,Rainwise IP-100,2013-04-19 20:01:00,
2013-04-19 16:07:00,63.0,62.5,29.71,SW,225,3.0,13.0,98,0.00,,,0.00,Rainwise IP-100,2013-04-19 20:07:00,
2013-04-19 16:12:00,63.0,62.5,29.71,SSE,157,3.0,13.0,98,0.00,,,0.00,Rainwise IP-100,2013-04-19 20:12:00,
2013-04-19 16:17:00,63.0,62.5,29.71,SSW,202,3.0,10.0,98,0.00,,,0.00,Rainwise IP-100,2013-04-19 20:17:00,
2013-04-19 16:22:00,63.0,62.5,29.71,South,180,6.0,10.0,98,0.00,,,0.00,Rainwise IP-100,2013-04-19 20:22:00,
2013-04-19 16:27:00,63.0,62.5,29.70,SSW,202,4.0,12.0,98,0.00,,,0.00,Rainwise IP-100,2013-04-19 20:27:00,
2013-04-19 16:32:00,63.0,62.5,29.70,SSW,202,6.0,10.0,98,0.00,,,0.00,Rainwise IP-100,2013-04-19 20:32:00,
2013-04-19 16:37:00,63.0,62.5,29.69,SSW,202,2.0,10.0,98,0.00,,,0.00,Rainwise IP-100,2013-04-19 20:37:00,
2013-04-19 16:42:00,63.0,62.5,29.69,South,180,3.0,10.0,98,0.00,,,0.00,Rainwise IP-100,2013-04-19 20:42:00,
2013-04-19 16:47:00,63.0,62.5,29.69,SSW,202,9.0,10.0,98,0.00,,,0.00,Rainwise IP-100,2013-04-19 20:47:00,
2013-04-19 16:52:00,63.0,62.5,29.69,SW,225,2.0,13.0,98,0.00,,,0.00,Rainwise IP-100,2013-04-19 20:52:00,
2013-04-19 16:57:00,63.0,62.5,29.68,South,180,6.0,11.0,98,0.00,,,0.00,Rainwise IP-100,2013-04-19 20:57:00,
2013-04-19 17:02:00,63.0,62.5,29.68,SSE,157,6.0,17.0,98,0.00,,,0.00,Rainwise IP-100,2013-04-19 21:02:00,
2013-04-19 17:08:00,63.0,62.5,29.68,South,180,4.0,13.0,98,0.00,,,0.00,Rainwise IP-100,2013-04-19 21:08:00,
2013-04-19 17:13:00,63.0,62.5,29.68,SSW,202,7.0,12.0,98,0.00,,,0.00,Rainwise IP-100,2013-04-19 21:13:00,
2013-04-19 17:18:00,63.0,62.5,29.68,SSE,157,5.0,10.0,98,0.00,,,0.00,Rainwise IP-100,2013-04-19 21:18:00,
2013-04-19 17:23:00,63.0,62.5,29.68,South,180,2.0,10.0,98,0.00,,,0.00,Rainwise IP-100,2013-04-19 21:23:00,
2013-04-19 17:28:00,63.0,62.5,29.67,South,180,6.0,12.0,98,0.00,,,0.00,Rainwise IP-100,2013-04-19 21:28:00,
2013-04-19 17:33:00,63.0,62.5,29.67,SSW,202,7.0,10.0,98,0.00,,,0.00,Rainwise IP-100,2013-04-19 21:33:00,
2013-04-19 17:38:00,62.0,61.5,29.66,SW,225,9.0,13.0,98,0.00,,,0.00,Rainwise IP-100,2013-04-19 21:38:00,
2013-04-19 17:43:00,62.0,61.5,29.66,SW,225,12.0,13.0,98,0.00,,,0.00,Rainwise IP-100,2013-04-19 21:43:00,
2013-04-19 17:48:00,62.0,61.5,29.66,SW,225,11.0,15.0,98,0.00,,,0.00,Rainwise IP-100,2013-04-19 21:48:00,
2013-04-19 17:53:00,62.0,61.5,29.66,SSW,202,10.0,12.0,98,0.00,,,0.00,Rainwise IP-100,2013-04-19 21:53:00,
2013-04-19 17:59:00,62.0,61.5,29.66,South,180,6.0,15.0,98,0.00,,,0.00,Rainwise IP-100,2013-04-19 21:59:00,
2013-04-19 18:04:00,62.0,61.5,29.66,SSE,157,5.0,10.0,98,0.00,,,0.00,Rainwise IP-100,2013-04-19 22:04:00,
2013-04-19 18:09:00,62.0,61.5,29.65,South,180,5.0,15.0,98,0.00,,,0.00,Rainwise IP-100,2013-04-19 22:09:00,
2013-04-19 18:14:00,62.0,61.5,29.65,SSE,157,6.0,19.0,98,0.00,,,0.00,Rainwise IP-100,2013-04-19 22:14:00,
2013-04-19 18:19:00,61.0,60.5,29.66,West,270,4.0,12.0,98,0.00,,,0.00,Rainwise IP-100,2013-04-19 22:19:00,
2013-04-19 18:24:00,61.0,60.5,29.66,East,90,2.0,12.0,98,0.00,,,0.00,Rainwise IP-100,2013-04-19 22:24:00,
2013-04-19 18:29:00,61.0,60.5,29.66,South,180,6.0,14.0,98,0.00,,,0.00,Rainwise IP-100,2013-04-19 22:29:00,
2013-04-19 18:34:00,61.0,60.5,29.66,SSW,202,5.0,13.0,98,0.00,,,0.00,Rainwise IP-100,2013-04-19 22:34:00,
2013-04-19 18:40:00,61.0,60.5,29.66,South,180,7.0,16.0,98,0.00,,,0.00,Rainwise IP-100,2013-04-19 22:40:00,
2013-04-19 18:45:00,61.0,60.5,29.66,SSE,157,5.0,11.0,98,0.00,,,0.00,Rainwise IP-100,2013-04-19 22:45:00,
2013-04-19 18:50:00,61.0,60.5,29.65,SSW,202,8.0,11.0,98,0.00,,,0.00,Rainwise IP-100,2013-04-19 22:50:00,
2013-04-19 18:55:00,61.0,60.5,29.65,SSE,157,7.0,13.0,98,0.00,,,0.00,Rainwise IP-100,2013-04-19 22:55:00,
2013-04-19 19:00:00,61.0,60.5,29.65,SSW,202,6.0,17.0,98,0.00,,,0.00,Rainwise IP-100,2013-04-19 23:00:00,
2013-04-19 19:05:00,61.0,60.5,29.65,South,180,5.0,15.0,98,0.00,,,0.00,Rainwise IP-100,2013-04-19 23:05:00,
2013-04-19 19:10:00,60.0,59.5,29.66,SW,225,0.0,13.0,98,0.00,,,0.00,Rainwise IP-100,2013-04-19 23:10:00,
2013-04-19 19:15:00,60.0,59.5,29.66,SSE,157,4.0,13.0,98,0.00,,,0.00,Rainwise IP-100,2013-04-19 23:15:00,
2013-04-19 19:21:00,60.0,59.5,29.66,SSE,157,6.0,12.0,98,0.00,,,0.00,Rainwise IP-100,2013-04-19 23:21:00,
2013-04-19 19:26:00,60.0,59.5,29.66,South,180,6.0,10.0,98,0.00,,,0.00,Rainwise IP-100,2013-04-19 23:26:00,
2013-04-19 19:31:00,60.0,59.5,29.66,South,180,2.0,11.0,98,0.00,,,0.00,Rainwise IP-100,2013-04-19 23:31:00,
2013-04-19 19:36:00,60.0,59.5,29.67,SSW,202,3.0,16.0,98,0.00,,,0.00,Rainwise IP-100,2013-04-19 23:36:00,
2013-04-19 19:41:00,60.0,59.5,29.67,SW,225,14.0,17.0,98,0.00,,,0.00,Rainwise IP-100,2013-04-19 23:41:00,
2013-04-19 19:46:00,61.0,60.5,29.66,WSW,247,2.0,16.0,98,0.00,,,0.00,Rainwise IP-100,2013-04-19 23:46:00,
2013-04-19 19:51:00,61.0,60.5,29.66,WNW,292,9.0,14.0,98,0.00,,,0.00,Rainwise IP-100,2013-04-19 23:51:00,
2013-04-19 19:57:00,61.0,60.5,29.66,West,270,6.0,15.0,98,0.00,,,0.00,Rainwise IP-100,2013-04-19 23:57:00,
2013-04-19 20:02:00,61.0,60.5,29.66,SSW,202,5.0,13.0,98,0.00,,,0.00,Rainwise IP-100,2013-04-20 00:02:00,
2013-04-19 20:07:00,61.0,60.5,29.66,SW,225,7.0,11.0,98,0.00,,,0.00,Rainwise IP-100,2013-04-20 00:07:00,
2013-04-19 20:12:00,61.0,60.5,29.66,WSW,247,4.0,12.0,98,0.00,,,0.00,Rainwise IP-100,2013-04-20 00:12:00,
2013-04-19 20:17:00,61.0,60.5,29.66,SSE,157,6.0,12.0,98,0.00,,,0.00,Rainwise IP-100,2013-04-20 00:17:00,
2013-04-19 20:22:00,61.0,60.5,29.66,South,180,9.0,12.0,98,0.00,,,0.00,Rainwise IP-100,2013-04-20 00:22:00,
2013-04-19 20:27:00,61.0,60.5,29.65,WSW,247,6.0,15.0,98,0.00,,,0.00,Rainwise IP-100,2013-04-20 00:27:00,
2013-04-19 20:32:00,61.0,60.5,29.65,SE,135,4.0,12.0,98,0.00,,,0.00,Rainwise IP-100,2013-04-20 00:32:00,
2013-04-19 20:37:00,61.0,60.5,29.64,SW,225,9.0,11.0,98,0.00,,,0.00,Rainwise IP-100,2013-04-20 00:37:00,
2013-04-19 20:43:00,61.0,60.5,29.64,SW,225,8.0,9.0,98,0.00,,,0.00,Rainwise IP-100,2013-04-20 00:43:00,
2013-04-19 20:48:00,61.0,60.5,29.63,SW,225,9.0,12.0,98,0.00,,,0.00,Rainwise IP-100,2013-04-20 00:48:00,
2013-04-19 20:53:00,61.0,60.5,29.63,South,180,9.0,14.0,98,0.00,,,0.00,Rainwise IP-100,2013-04-20 00:53:00,
2013-04-19 20:58:00,61.0,60.5,29.64,South,180,2.0,11.0,98,0.00,,,0.00,Rainwise IP-100,2013-04-20 00:58:00,
2013-04-19 21:03:00,61.0,60.5,29.64,South,180,10.0,11.0,98,0.00,,,0.00,Rainwise IP-100,2013-04-20 01:03:00,
2013-04-19 21:08:00,61.0,60.5,29.63,SW,225,4.0,13.0,98,0.00,,,0.00,Rainwise IP-100,2013-04-20 01:08:00,
2013-04-19 21:13:00,61.0,60.5,29.63,South,180,6.0,11.0,98,0.00,,,0.00,Rainwise IP-100,2013-04-20 01:13:00,
2013-04-19 21:18:00,61.0,60.5,29.63,SSW,202,10.0,12.0,98,0.00,,,0.00,Rainwise IP-100,2013-04-20 01:18:00,
2013-04-19 21:23:00,61.0,60.5,29.63,SSE,157,7.0,12.0,98,0.00,,,0.00,Rainwise IP-100,2013-04-20 01:23:00,
2013-04-19 21:28:00,61.0,60.5,29.62,South,180,0.0,16.0,98,0.00,,,0.00,Rainwise IP-100,2013-04-20 01:28:00,
2013-04-19 21:34:00,62.0,61.5,29.62,SW,225,5.0,15.0,98,0.00,,,0.00,Rainwise IP-100,2013-04-20 01:34:00,
2013-04-19 21:39:00,62.0,61.5,29.62,SSW,202,9.0,12.0,98,0.00,,,0.00,Rainwise IP-100,2013-04-20 01:39:00,
2013-04-19 21:44:00,62.0,61.5,29.62,SW,225,9.0,12.0,98,0.00,,,0.00,Rainwise IP-100,2013-04-20 01:44:00,
2013-04-19 21:49:00,62.0,61.5,29.62,South,180,4.0,15.0,98,0.00,,,0.00,Rainwise IP-100,2013-04-20 01:49:00,
2013-04-19 21:54:00,62.0,61.5,29.62,WSW,247,6.0,14.0,98,0.00,,,0.00,Rainwise IP-100,2013-04-20 01:54:00,
2013-04-19 21:59:00,62.0,61.5,29.62,South,180,9.0,14.0,98,0.00,,,0.00,Rainwise IP-100,2013-04-20 01:59:00,
2013-04-19 22:04:00,62.0,61.5,29.62,South,180,5.0,12.0,98,0.00,,,0.00,Rainwise IP-100,2013-04-20 02:04:00,
2013-04-19 22:09:00,62.0,61.5,29.61,South,180,7.0,11.0,98,0.06,,,0.01,Rainwise IP-100,2013-04-20 02:09:00,
2013-04-19 22:15:00,62.0,61.5,29.61,SW,225,10.0,19.0,98,0.06,,,0.01,Rainwise IP-100,2013-04-20 02:15:00,
2013-04-19 22:20:00,62.0,61.5,29.60,SSE,157,3.0,19.0,98,0.00,,,0.01,Rainwise IP-100,2013-04-20 02:20:00,
2013-04-19 22:25:00,62.0,61.5,29.60,SE,135,6.0,11.0,98,0.00,,,0.01,Rainwise IP-100,2013-04-20 02:25:00,
2013-04-19 22:30:00,62.0,61.5,29.60,SSW,202,7.0,15.0,98,0.00,,,0.01,Rainwise IP-100,2013-04-20 02:30:00,
2013-04-19 22:35:00,62.0,61.5,29.60,SW,225,4.0,19.0,98,0.00,,,0.01,Rainwise IP-100,2013-04-20 02:35:00,
2013-04-19 22:40:00,62.0,61.5,29.60,SW,225,7.0,14.0,98,0.00,,,0.01,Rainwise IP-100,2013-04-20 02:40:00,
2013-04-19 22:45:00,62.0,61.5,29.60,SSE,157,4.0,15.0,98,0.00,,,0.01,Rainwise IP-100,2013-04-20 02:45:00,
2013-04-19 22:50:00,62.0,61.5,29.60,SSE,157,6.0,16.0,98,0.00,,,0.01,Rainwise IP-100,2013-04-20 02:50:00,
2013-04-19 22:55:00,62.0,61.5,29.60,SSW,202,7.0,12.0,98,0.00,,,0.01,Rainwise IP-100,2013-04-20 02:55:00,
2013-04-19 23:01:00,62.0,61.5,29.59,SSE,157,3.0,12.0,98,0.00,,,0.01,Rainwise IP-100,2013-04-20 03:01:00,
2013-04-19 23:06:00,62.0,61.5,29.59,SW,225,3.0,9.0,98,0.00,,,0.01,Rainwise IP-100,2013-04-20 03:06:00,
2013-04-19 23:11:00,62.0,61.5,29.59,WNW,292,6.0,11.0,98,0.00,,,0.01,Rainwise IP-100,2013-04-20 03:11:00,
2013-04-19 23:16:00,62.0,61.5,29.58,SSE,157,6.0,17.0,98,0.00,,,0.01,Rainwise IP-100,2013-04-20 03:16:00,
2013-04-19 23:21:00,62.0,61.5,29.58,SE,135,3.0,13.0,98,0.00,,,0.01,Rainwise IP-100,2013-04-20 03:21:00,
2013-04-19 23:26:00,62.0,61.5,29.58,SSW,202,6.0,16.0,98,0.00,,,0.01,Rainwise IP-100,2013-04-20 03:26:00,
2013-04-19 23:31:00,62.0,61.5,29.58,WSW,247,5.0,16.0,98,0.00,,,0.01,Rainwise IP-100,2013-04-20 03:31:00,
2013-04-19 23:36:00,62.0,61.5,29.58,SW,225,6.0,17.0,98,0.00,,,0.01,Rainwise IP-100,2013-04-20 03:36:00,
2013-04-19 23:41:00,62.0,61.5,29.58,WSW,247,8.0,11.0,98,0.00,,,0.01,Rainwise IP-100,2013-04-20 03:41:00,
2013-04-19 23:47:00,62.0,61.5,29.58,SW,225,9.0,13.0,98,0.00,,,0.01,Rainwise IP-100,2013-04-20 03:47:00,
2013-04-19 23:52:00,62.0,61.5,29.58,South,180,13.0,16.0,98,0.00,,,0.01,Rainwise IP-100,2013-04-20 03:52:00,
2013-04-19 23:57:00,62.0,61.5,29.57,South,180,7.0,17.0,98,0.00,,,0.01,Rainwise IP-100,2013-04-20 03:57:00,